Hourly Weather Benque Viejo Del Carmen

Today, 16 April, Friday

Time Temperature Precipitation Wind Pressure Humidity
00:00 +23°C° 0 mm 1 mps 742 mmHg 98%
01:00 +22°C° 0 mm 1 mps 741 mmHg 98%
02:00 +22°C° 0 mm 1 mps 741 mmHg 98%
03:00 +22°C° 0 mm 1 mps 740 mmHg 98%
04:00 +23°C° 0 mm 1 mps 740 mmHg 97%
05:00 +23°C° 0 mm 1 mps 740 mmHg 97%
06:00 +23°C° 0 mm 1 mps 741 mmHg 96%
07:00 +26°C° 0 mm 1 mps 741 mmHg 82%
08:00 +29°C° 0 mm 1 mps 741 mmHg 69%
09:00 +32°C° 0 mm 2 mps 741 mmHg 55%
10:00 +35°C° 0 mm 2 mps 741 mmHg 48%
11:00 +38°C° 0 mm 2 mps 740 mmHg 40%
12:00 +40°C° 0 mm 2 mps 739 mmHg 33%
13:00 +40°C° 0 mm 2 mps 739 mmHg 31%
14:00 +40°C° 0 mm 3 mps 738 mmHg 29%
15:00 +42°C° 0 mm 3 mps 737 mmHg 28%
16:00 +38°C° 0 mm 3 mps 737 mmHg 38%
17:00 +35°C° 0 mm 3 mps 738 mmHg 49%
18:00 +33°C° 0 mm 3 mps 738 mmHg 60%
19:00 +30°C° 0 mm 3 mps 739 mmHg 69%
20:00 +28°C° 0 mm 2 mps 739 mmHg 79%
21:00 +26°C° 0 mm 2 mps 740 mmHg 88%
22:00 +25°C° 0 mm 2 mps 740 mmHg 90%
23:00 +25°C° 0 mm 1 mps 739 mmHg 92%

Tomorrow, 17 April, Saturday

Time Temperature Precipitation Wind Pressure Humidity
00:00 +24°C° 0 mm 1 mps 739 mmHg 94%
01:00 +24°C° 0 mm 1 mps 739 mmHg 94%
02:00 +24°C° 0 mm 1 mps 739 mmHg 94%
03:00 +24°C° 0 mm 1 mps 739 mmHg 94%
04:00 +24°C° 0 mm 1 mps 739 mmHg 94%
05:00 +24°C° 0 mm 1 mps 739 mmHg 94%
06:00 +24°C° 0 mm 1 mps 739 mmHg 94%
07:00 +27°C° 0 mm 1 mps 740 mmHg 78%
08:00 +31°C° 0 mm 1 mps 740 mmHg 61%
09:00 +35°C° 0 mm 1 mps 740 mmHg 45%
10:00 +37°C° 0 mm 1 mps 740 mmHg 39%
11:00 +40°C° 0 mm 2 mps 739 mmHg 34%
12:00 +41°C° 0 mm 2 mps 739 mmHg 28%
13:00 +42°C° 0 mm 2 mps 738 mmHg 27%
14:00 +43°C° 0 mm 3 mps 737 mmHg 25%
15:00 +44°C° 0 mm 3 mps 736 mmHg 23%
16:00 +40°C° 0 mm 3 mps 737 mmHg 35%
17:00 +37°C° 0 mm 3 mps 737 mmHg 46%
18:00 +34°C° 0 mm 3 mps 737 mmHg 57%
19:00 +33°C° 0 mm 3 mps 738 mmHg 65%
20:00 +30°C° 0 mm 2 mps 739 mmHg 73%
21:00 +28°C° 0 mm 2 mps 740 mmHg 81%
22:00 +28°C° 0 mm 1 mps 740 mmHg 82%
23:00 +28°C° 0 mm 1 mps 740 mmHg 82%

Day after tomorrow, 18 April, Sunday

Time Temperature Precipitation Wind Pressure Humidity
00:00 +27°C° 0 mm 1 mps 740 mmHg 83%
01:00 +27°C° 0.1 mm 1 mps 740 mmHg 86%
02:00 +24°C° 0.1 mm 0 mps 740 mmHg 90%
03:00 +24°C° 0.1 mm 0 mps 740 mmHg 93%
04:00 +23°C° 0.1 mm 0 mps 740 mmHg 94%
05:00 +23°C° 0.1 mm 0 mps 740 mmHg 95%
06:00 +23°C° 0.1 mm 0 mps 741 mmHg 95%
07:00 +26°C° 0 mm 0 mps 741 mmHg 83%
08:00 +28°C° 0 mm 0 mps 742 mmHg 72%
09:00 +33°C° 0 mm 1 mps 742 mmHg 60%
10:00 +35°C° 0.1 mm 1 mps 741 mmHg 52%
11:00 +35°C° 0.1 mm 0 mps 741 mmHg 44%
12:00 +38°C° 0.1 mm 0 mps 740 mmHg 35%
13:00 +35°C° 0.4 mm 0 mps 739 mmHg 44%
14:00 +35°C° 0.4 mm 1 mps 739 mmHg 52%
15:00 +33°C° 0.4 mm 1 mps 738 mmHg 60%
16:00 +29°C° 5.2 mm 2 mps 739 mmHg 71%
17:00 +26°C° 5.2 mm 3 mps 739 mmHg 83%
18:00 +22°C° 5.2 mm 4 mps 740 mmHg 94%
19:00 +22°C° 3.1 mm 3 mps 741 mmHg 95%
20:00 +23°C° 3.1 mm 2 mps 742 mmHg 96%
21:00 +23°C° 3.1 mm 1 mps 743 mmHg 97%
22:00 +23°C° 1 mm 1 mps 742 mmHg 97%
23:00 +21°C° 1 mm 0 mps 742 mmHg 97%

19 April, Monday

Time Temperature Precipitation Wind Pressure Humidity
00:00 +21°C° 1 mm 0 mps 742 mmHg 98%
01:00 +21°C° 0.2 mm 0 mps 742 mmHg 98%
02:00 +21°C° 0.2 mm 0 mps 742 mmHg 98%
03:00 +20°C° 0.2 mm 0 mps 742 mmHg 98%
04:00 +20°C° 0 mm 0 mps 742 mmHg 98%
05:00 +22°C° 0 mm 1 mps 742 mmHg 98%
06:00 +22°C° 0 mm 1 mps 743 mmHg 98%
07:00 +25°C° 0 mm 1 mps 743 mmHg 89%
08:00 +27°C° 0 mm 1 mps 743 mmHg 79%
09:00 +29°C° 0 mm 2 mps 744 mmHg 70%
10:00 +31°C° 0.1 mm 1 mps 743 mmHg 64%
11:00 +32°C° 0.1 mm 1 mps 742 mmHg 58%
12:00 +34°C° 0.1 mm 1 mps 742 mmHg 52%
13:00 +33°C° 0.2 mm 1 mps 741 mmHg 54%
14:00 +33°C° 0.2 mm 1 mps 741 mmHg 57%
15:00 +32°C° 0.2 mm 1 mps 740 mmHg 60%
16:00 +31°C° 0.1 mm 1 mps 740 mmHg 65%
17:00 +30°C° 0.1 mm 1 mps 740 mmHg 71%
18:00 +26°C° 0.1 mm 0 mps 740 mmHg 76%
19:00 +26°C° 0 mm 0 mps 741 mmHg 80%
20:00 +25°C° 0 mm 0 mps 741 mmHg 83%
21:00 +26°C° 0 mm 1 mps 742 mmHg 87%
22:00 +25°C° 0.2 mm 1 mps 742 mmHg 88%
23:00 +23°C° 0.2 mm 0 mps 742 mmHg 90%

20 April, Tuesday

Time Temperature Precipitation Wind Pressure Humidity
00:00 +23°C° 0.2 mm 0 mps 742 mmHg 92%
01:00 +22°C° 0 mm 0 mps 742 mmHg 92%
02:00 +22°C° 0 mm 0 mps 741 mmHg 92%
03:00 +22°C° 0 mm 0 mps 741 mmHg 92%
04:00 +22°C° 0 mm 0 mps 741 mmHg 92%
05:00 +22°C° 0 mm 0 mps 742 mmHg 91%
06:00 +22°C° 0 mm 0 mps 742 mmHg 91%
07:00 +25°C° 0 mm 0 mps 742 mmHg 79%
08:00 +28°C° 0 mm 0 mps 743 mmHg 67%
09:00 +30°C° 0 mm 0 mps 743 mmHg 56%
10:00 +34°C° 0 mm 1 mps 742 mmHg 50%
11:00 +36°C° 0 mm 1 mps 742 mmHg 44%
12:00 +37°C° 0 mm 1 mps 741 mmHg 38%
13:00 +37°C° 0 mm 1 mps 741 mmHg 40%
14:00 +37°C° 0 mm 2 mps 740 mmHg 41%
15:00 +37°C° 0 mm 2 mps 740 mmHg 43%
16:00 +35°C° 0 mm 2 mps 740 mmHg 52%
17:00 +32°C° 0 mm 2 mps 740 mmHg 61%
18:00 +30°C° 0 mm 2 mps 740 mmHg 70%
19:00 +28°C° 0 mm 2 mps 741 mmHg 78%
20:00 +27°C° 0 mm 2 mps 742 mmHg 85%
21:00 +26°C° 0 mm 1 mps 743 mmHg 93%
22:00 +25°C° 0.1 mm 1 mps 743 mmHg 94%
23:00 +25°C° 0.1 mm 1 mps 743 mmHg 96%

21 April, Wednesday

Time Temperature Precipitation Wind Pressure Humidity
00:00 +23°C° 0.1 mm 0 mps 743 mmHg 98%
01:00 +23°C° 0.3 mm 0 mps 743 mmHg 98%
02:00 +23°C° 0.3 mm 0 mps 743 mmHg 98%
03:00 +23°C° 0.3 mm 0 mps 742 mmHg 98%
04:00 +23°C° 0.1 mm 0 mps 743 mmHg 98%
05:00 +23°C° 0.1 mm 0 mps 743 mmHg 98%
06:00 +23°C° 0.1 mm 0 mps 744 mmHg 98%
07:00 +24°C° 0.4 mm 0 mps 744 mmHg 95%
08:00 +25°C° 0.4 mm 0 mps 744 mmHg 92%
09:00 +25°C° 0.4 mm 0 mps 744 mmHg 89%
10:00 +28°C° 1.8 mm 1 mps 744 mmHg 88%
11:00 +29°C° 1.8 mm 1 mps 744 mmHg 87%
12:00 +29°C° 1.8 mm 1 mps 744 mmHg 86%
13:00 +29°C° 1.5 mm 1 mps 743 mmHg 86%
14:00 +29°C° 1.5 mm 2 mps 743 mmHg 85%
15:00 +29°C° 1.5 mm 2 mps 742 mmHg 85%
16:00 +28°C° 0.4 mm 2 mps 742 mmHg 87%
17:00 +27°C° 0.4 mm 2 mps 742 mmHg 89%
18:00 +26°C° 0.4 mm 2 mps 742 mmHg 90%
19:00 +26°C° 0.1 mm 1 mps 743 mmHg 92%
20:00 +25°C° 0.1 mm 1 mps 744 mmHg 95%
21:00 +25°C° 0.1 mm 1 mps 744 mmHg 97%
22:00 +25°C° 0.1 mm 1 mps 744 mmHg 97%
23:00 +25°C° 0.1 mm 1 mps 744 mmHg 98%
Show more